Weather History for KCDD - January, 2014

Change the Weather History Date:

Wednesday, January 15, 2014

  Actual Average Record
Temperature  
Mean Temperature -6 °F -  
Max Temperature 12 °F 13 °F 33 °F (2006)
Min Temperature -23 °F -1 °F -29 °F (2005)
Degree Days  
Heating Degree Days 70    
Moisture  
Dew Point -5 °F    
Average Humidity 81    
Maximum Humidity 92    
Minimum Humidity 67    
Precipitation  
Precipitation 0.00 in - - ()
Sea Level Pressure  
Sea Level Pressure 29.69 in    
Wind  
Wind Speed 4 mph (South)    
Max Wind Speed 14 mph    
Max Gust Speed 24 mph    
Visibility 6 miles    
Events Snow    
Averages and records for this station are not official NWS values.
T = Trace of Precipitation, MM = Missing Value Source: NWS Daily Summary

Daily Weather History Graph

Daily Weather History Graph

Search for Another Location

Airport or City:

Trip Planner

Search our weather history database for the weather conditions in past years. The results will help you decide how hot, cold, wet, or windy it might be!

Date:

Astronomy

Jan. 15, 2014 Rise Set
Actual Time 7:55 AM CST 4:43 PM CST
Civil Twilight 7:20 AM CST 5:18 PM CST
Nautical Twilight 6:41 AM CST 5:57 PM CST
Astronomical Twilight 6:04 AM CST 6:34 PM CST
Moon 4:46 PM CST (1/15) 7:08 AM CST (1/15)
Length of Visible Light 9h 58m
Length of Day
8h 47m
Full, 100% of the Moon is Illuminated
Jan 15
Full
Jan 15
Full
Jan 23
Last Quarter
Jan 30
New
Feb 6
First Quarter

Hourly Weather History & Observations

Time (CST) Temp. Windchill Dew Point Humidity Pressure Visibility Wind Dir Wind Speed Gust Speed Precip Events Conditions
12:03 AM -0.4 °F -8.3 °F -5.8 °F 78% 30.06 in 10.0 mi WNW 3.5 mph - N/A Snow Light Snow
12:23 AM -0.4 °F -8.3 °F -5.8 °F 78% 30.06 in 7.0 mi West 3.5 mph - N/A   Overcast
12:43 AM -2.2 °F -10.4 °F -5.8 °F 85% 30.07 in 3.0 mi West 3.5 mph - N/A Snow Light Snow
1:03 AM -2.2 °F - -7.6 °F 78% 30.07 in 5.0 mi Calm Calm - N/A Snow Light Snow
1:23 AM -2.2 °F -10.4 °F -7.6 °F 78% 30.06 in 10.0 mi NW 3.5 mph - N/A   Overcast
1:43 AM -2.2 °F - -7.6 °F 78% 30.06 in 5.0 mi Calm Calm - N/A Snow Light Snow
2:03 AM -2.2 °F -10.4 °F -7.6 °F 78% 30.06 in 10.0 mi NW 3.5 mph - N/A   Overcast
2:23 AM -2.2 °F - -7.6 °F 78% 30.06 in 10.0 mi Calm Calm - N/A   Overcast
2:43 AM -2.2 °F - -7.6 °F 78% 30.05 in 10.0 mi Calm Calm - N/A   Overcast
3:03 AM -5.8 °F - -9.4 °F 84% 30.06 in 10.0 mi Calm Calm - N/A   Scattered Clouds
3:23 AM -9.4 °F - -14.8 °F 77% 30.05 in 10.0 mi Calm Calm - N/A   Clear
3:43 AM -11.2 °F - -16.6 °F 77% 30.04 in 10.0 mi Calm Calm - N/A   Clear
4:03 AM -13.0 °F - -18.4 °F 77% 30.04 in 10.0 mi Calm Calm - N/A   Scattered Clouds
4:23 AM -14.8 °F - -18.4 °F 84% 30.04 in 10.0 mi Calm Calm - N/A   Scattered Clouds
4:43 AM -16.6 °F - -20.2 °F 84% 30.03 in 10.0 mi Calm Calm - N/A   Scattered Clouds
5:03 AM -16.6 °F - -22.0 °F 76% 30.03 in 10.0 mi Calm Calm - N/A   Scattered Clouds
5:23 AM -18.4 °F - -23.8 °F 76% 30.03 in 10.0 mi Calm Calm - N/A   Scattered Clouds
5:43 AM -18.4 °F - -25.6 °F 70% 30.02 in 10.0 mi Calm Calm - N/A   Clear
6:03 AM -20.2 °F - -25.6 °F 76% 30.00 in 10.0 mi Calm Calm - N/A   Clear
6:23 AM -22.0 °F - -27.4 °F 76% 30.00 in 10.0 mi Calm Calm - N/A   Clear
6:43 AM -22.0 °F - -27.4 °F 76% 30.00 in 10.0 mi Calm Calm - N/A   Clear
7:03 AM -23.8 °F - -27.4 °F 83% 29.98 in 10.0 mi Calm Calm - N/A   Clear
7:23 AM -22.0 °F - -27.4 °F 76% 29.98 in 10.0 mi Calm Calm - N/A   Clear
7:43 AM -23.8 °F - -27.4 °F 83% 29.98 in 10.0 mi Calm Calm - N/A   Scattered Clouds
8:03 AM -23.8 °F - -27.4 °F 83% 29.97 in 7.0 mi Calm Calm - N/A   Mostly Cloudy
8:23 AM -20.2 °F - -23.8 °F 83% 29.96 in 7.0 mi Calm Calm - N/A   Overcast
8:43 AM -14.8 °F - -18.4 °F 84% 29.93 in 5.0 mi Calm Calm - N/A   Overcast
9:03 AM -9.4 °F - -14.8 °F 77% 29.92 in 5.0 mi Calm Calm - N/A   Overcast
9:23 AM -5.8 °F - -9.4 °F 84% 29.89 in 7.0 mi Calm Calm - N/A   Overcast
9:43 AM -2.2 °F - -5.8 °F 85% 29.88 in 10.0 mi Calm Calm - N/A   Scattered Clouds
10:03 AM -0.4 °F -13.4 °F -4.0 °F 85% 29.87 in 10.0 mi South 6.9 mph - N/A   Clear
10:23 AM 1.4 °F -8.3 °F -2.2 °F 85% 29.86 in 10.0 mi South 4.6 mph - N/A   Scattered Clouds
10:43 AM 1.4 °F -8.3 °F -2.2 °F 85% 29.84 in 10.0 mi South 4.6 mph - N/A   Clear
11:03 AM 3.2 °F -6.2 °F -0.4 °F 85% 29.81 in 10.0 mi South 4.6 mph - N/A   Scattered Clouds
11:23 AM 3.2 °F -9.1 °F -2.2 °F 78% 29.82 in 10.0 mi SW 6.9 mph - N/A   Scattered Clouds
11:43 AM 5.0 °F -8.1 °F -0.4 °F 78% 29.80 in 10.0 mi South 8.1 mph - N/A   Scattered Clouds
12:03 PM 5.0 °F -6.9 °F -2.2 °F 72% 29.77 in 10.0 mi South 6.9 mph - N/A   Clear
12:23 PM 5.0 °F -4.1 °F -2.2 °F 72% 29.74 in 10.0 mi SSE 4.6 mph - N/A   Scattered Clouds
12:43 PM 6.8 °F -3.5 °F -2.2 °F 67% 29.72 in 10.0 mi SSE 5.8 mph - N/A   Scattered Clouds
1:03 PM 6.8 °F -5.9 °F -2.2 °F 67% 29.68 in 10.0 mi South 8.1 mph - N/A   Scattered Clouds
1:23 PM 6.8 °F -3.5 °F -0.4 °F 72% 29.64 in 10.0 mi SSE 5.8 mph - N/A   Scattered Clouds
1:43 PM 6.8 °F -5.9 °F -0.4 °F 72% 29.64 in 10.0 mi South 8.1 mph - N/A   Overcast
2:03 PM 6.8 °F -4.8 °F -0.4 °F 72% 29.61 in 10.0 mi SSE 6.9 mph - N/A   Overcast
2:23 PM 8.6 °F -3.7 °F -0.4 °F 67% 29.57 in 10.0 mi SSE 8.1 mph - N/A   Overcast
2:43 PM 6.8 °F -6.9 °F -0.4 °F 72% 29.54 in 10.0 mi SSE 9.2 mph - N/A   Overcast
3:03 PM 6.8 °F -7.8 °F -0.4 °F 72% 29.51 in 3.0 mi SSE 10.4 mph 17.3 mph N/A Snow Light Snow
3:23 PM 6.8 °F -5.9 °F 1.4 °F 79% 29.51 in 2.0 mi South 8.1 mph - N/A Snow Light Snow
3:43 PM 8.6 °F -5.5 °F 1.4 °F 73% 29.49 in 0.2 mi SSE 10.4 mph 20.7 mph N/A Snow Snow
4:03 PM 6.8 °F -3.5 °F 3.2 °F 85% 29.46 in 0.2 mi SSE 5.8 mph - N/A Snow Heavy Snow
4:23 PM 8.6 °F -5.5 °F 5.0 °F 85% 29.43 in 1.2 mi SSE 10.4 mph - N/A Snow Light Snow
4:43 PM 8.6 °F -3.7 °F 5.0 °F 85% 29.40 in 5.0 mi SSE 8.1 mph 19.6 mph N/A Snow Light Snow
5:03 PM 8.6 °F -4.7 °F 5.0 °F 85% 29.40 in 7.0 mi South 9.2 mph 18.4 mph N/A Snow Light Snow
5:23 PM 8.6 °F -4.7 °F 5.0 °F 85% 29.38 in 5.0 mi SSE 9.2 mph 19.6 mph N/A Snow Light Snow
5:43 PM 8.6 °F -7.7 °F 5.0 °F 85% 29.36 in 4.0 mi South 13.8 mph 20.7 mph N/A Snow Light Snow
6:03 PM 8.6 °F -5.5 °F 5.0 °F 85% 29.34 in 2.5 mi South 10.4 mph 20.7 mph N/A Snow Light Snow
6:23 PM 8.6 °F -4.7 °F 5.0 °F 85% 29.33 in 3.0 mi South 9.2 mph 20.7 mph N/A Snow Light Snow
6:43 PM 10.4 °F -3.3 °F 6.8 °F 85% 29.31 in 2.5 mi South 10.4 mph 24.2 mph N/A Snow Light Snow
7:03 PM 10.4 °F -2.4 °F 6.8 °F 85% 29.30 in 2.5 mi South 9.2 mph 20.7 mph N/A Snow Light Snow
7:23 PM 10.4 °F -2.4 °F 6.8 °F 85% 29.28 in 1.5 mi SSE 9.2 mph 23.0 mph N/A Snow Light Snow
7:43 PM 10.4 °F -2.4 °F 6.8 °F 85% 29.27 in 1.2 mi South 9.2 mph - N/A Snow Light Snow
8:03 PM 8.6 °F -1.3 °F 6.8 °F 92% 29.26 in 0.8 mi South 5.8 mph - N/A Snow Light Snow
8:23 PM 8.6 °F -4.7 °F 6.8 °F 92% 29.25 in 0.5 mi South 9.2 mph 16.1 mph N/A Snow Light Snow
8:43 PM 10.4 °F -1.5 °F 6.8 °F 85% 29.25 in 0.5 mi South 8.1 mph - N/A Snow Snow
9:03 PM 10.4 °F -0.4 °F 6.8 °F 85% 29.23 in 1.2 mi South 6.9 mph 16.1 mph N/A Snow Light Snow
9:23 PM 10.4 °F 2.2 °F 8.6 °F 92% 29.23 in 1.8 mi South 4.6 mph - N/A Snow Light Snow
9:43 PM 10.4 °F -1.5 °F 8.6 °F 92% 29.22 in 1.8 mi South 8.1 mph 17.3 mph N/A Snow Light Snow
10:03 PM 10.4 °F 0.8 °F 8.6 °F 92% 29.21 in 1.8 mi South 5.8 mph - N/A Snow Light Snow
10:23 PM 10.4 °F 0.8 °F 8.6 °F 92% 29.20 in 1.2 mi South 5.8 mph - N/A Snow Light Snow
10:43 PM 12.2 °F 4.3 °F 8.6 °F 85% 29.20 in 1.2 mi South 4.6 mph - N/A Snow Light Snow
11:03 PM 12.2 °F 2.9 °F 10.4 °F 92% 29.19 in 2.0 mi South 5.8 mph - N/A Snow Light Snow
11:23 PM 12.2 °F 4.3 °F 10.4 °F 92% 29.19 in 2.0 mi SSE 4.6 mph - N/A Snow Light Snow
11:43 PM 12.2 °F 4.3 °F 10.4 °F 92% 29.19 in 3.0 mi SSE 4.6 mph - N/A Snow Light Snow